Notices

What's New in latest Release from April 7th, 2021:

- Updated Glossary, including Speed of Maximum Gust, and Total Hourly Precipitation

- Updated national and regional climate services offices contacts and prices information

- Addition of station inventory lists for 1981-2010, 1971-2000, and 1961-1990 Normals.

If you haven't already, please take our survey and provide feedback about our website: https://eccc.sondage-survey.ca/f/LanguageSelection.aspx?s=442ca660-fcf1-47c0-95a9-59707d6fd709

Hourly Data Report for March 15, 2010

HALIFAX STANFIELD INT'L A
NOVA SCOTIA

44°52'48.060" N
63°30'00.050" W
145.40 m
8202250
71395
YHZ

Download Data

Hourly Data (March 2010)
Hourly Data Report for March 15, 2010
TIME
LST
Temp Definition
°C
Dew Point Definition
°C
Rel Hum Definition
%
Precip. Amount Definition
mm

Wind Dir Definition
10's deg

Wind Spd Definition
km/h
Visibility Definition
km
Stn Press Definition
kPa
Hmdx Definition


Wind Chill Definition


Weather Definition


00:00 -1.2 -10.0 51   8 15 24.1 100.24   -6 Mainly Clear
01:00 -0.9 -10.8 47   7 15 24.1 100.16   -6 Mainly Clear
02:00 -0.3 -11.9 41   6 11 24.1 100.11   -4 Mainly Clear
03:00 -0.7 -12.5 40   5 13 24.1 100.02   -5 Mainly Clear
04:00 -0.6 -12.5 40   5 11 24.1 100.01   -4 Clear
05:00 -1.5 -11.7 46   4 13 24.1 99.94   -6 Mainly Clear
06:00 -0.5 -11.9 42   6 15 24.1 99.90   -5 Mostly Cloudy
07:00 -0.5 -11.4 43   8 19 24.1 99.90   -6 Mostly Cloudy
08:00 1.0 -11.4 39   7 17 24.1 99.88     Mostly Cloudy
09:00 3.9 -11.5 31   7 19 24.1 99.88     Mainly Clear
10:00 6.3 -11.9 26   7 24 24.1 99.86     Mainly Clear
11:00 9.2 -11.4 22   6 26 24.1 99.80     Mostly Cloudy
12:00 10.4 -13.4 17   9 26 24.1 99.75     Mostly Cloudy
13:00 11.8 -11.6 18   6 26 24.1 99.64     Mostly Cloudy
14:00 11.6 -11.1 19   9 28 24.1 99.59     Mostly Cloudy
15:00 11.5 -10.9 20   5 28 24.1 99.57     Mostly Cloudy
16:00 9.5 -8.1 28   2 28 24.1 99.57     Mostly Cloudy
17:00 7.2 -8.8 31   4 20 24.1 99.60     Mostly Cloudy
18:00 5.8 -8.2 36   2 24 24.1 99.64     Mostly Cloudy
19:00 3.7 -7.0 45   2 15 24.1 99.68     Mostly Cloudy
20:00 1.4 -5.2 61   3 20 24.1 99.73     Mostly Cloudy
21:00 0.0 -4.6 71   2 13 24.1 99.75   -4 Mostly Cloudy
22:00 -1.4 -4.3 81   3 13 24.1 99.75   -6 Mostly Cloudy
23:00 -2.2 -4.2 86   2 9 24.1 99.74   -6 Mainly Clear

Notes on Data Quality.

Legend

  • E = Estimated
  • M = Missing
  • NA = Not Available*
  • [empty] = Indicates an unobserved value
Date modified: